Information on these data can be found in provided Readme document
Contact Info: Zachary Fasnacht (zachary.fasnacht@ssaihq.com); Nickolay Krotkov (nickolay.a.krotkov@nasa.gov); Lok Lamsal (lok.lamsal@nasa.gov)

FillValue: -999.
ScaleFactor: 1e15
Units: molecules/cm^2

Date(yyyy-mm-dd),City,Country,LonCenter,LatCenter,BoundingCoordinates,Median,Q1,Q3,Mean,Baseline_Median,Baseline_Q1,Baseline_Q3,Baseline_Mean,NumGoodSamples,NumTotalSamples
2015-01-01,Tunis,Tunisia,9.5375,33.8869,[9.0375 33.3869 10.0375 34.3869],0.519,0.291,0.786,0.547,0.626,0.371,0.913,0.641,149.0,568.0
2015-01-02,Tunis,Tunisia,9.5375,33.8869,[9.0375 33.3869 10.0375 34.3869],0.47,0.257,0.769,0.505,0.629,0.362,0.922,0.645,140.0,574.0
2015-01-03,Tunis,Tunisia,9.5375,33.8869,[9.0375 33.3869 10.0375 34.3869],0.47,0.257,0.769,0.513,0.631,0.37,0.921,0.645,167.0,573.0
2015-01-04,Tunis,Tunisia,9.5375,33.8869,[9.0375 33.3869 10.0375 34.3869],0.468,0.26,0.738,0.498,0.63,0.371,0.925,0.649,145.0,579.0
2015-01-05,Tunis,Tunisia,9.5375,33.8869,[9.0375 33.3869 10.0375 34.3869],0.468,0.257,0.738,0.496,0.593,0.341,0.885,0.623,169.0,564.0
2015-01-06,Tunis,Tunisia,9.5375,33.8869,[9.0375 33.3869 10.0375 34.3869],0.468,0.257,0.738,0.496,0.596,0.345,0.867,0.621,169.0,565.0
2015-01-07,Tunis,Tunisia,9.5375,33.8869,[9.0375 33.3869 10.0375 34.3869],0.486,0.291,0.756,0.516,0.585,0.34,0.863,0.612,209.0,560.0
2015-01-08,Tunis,Tunisia,9.5375,33.8869,[9.0375 33.3869 10.0375 34.3869],0.486,0.291,0.756,0.517,0.583,0.334,0.88,0.613,208.0,568.0
2015-01-09,Tunis,Tunisia,9.5375,33.8869,[9.0375 33.3869 10.0375 34.3869],0.47,0.26,0.751,0.518,0.586,0.315,0.868,0.594,241.0,568.0
2015-01-10,Tunis,Tunisia,9.5375,33.8869,[9.0375 33.3869 10.0375 34.3869],0.47,0.26,0.751,0.518,0.581,0.318,0.879,0.596,241.0,541.0
2015-01-11,Tunis,Tunisia,9.5375,33.8869,[9.0375 33.3869 10.0375 34.3869],0.47,0.265,0.747,0.519,0.583,0.318,0.865,0.592,216.0,540.0
2015-01-12,Tunis,Tunisia,9.5375,33.8869,[9.0375 33.3869 10.0375 34.3869],0.47,0.279,0.764,0.534,0.574,0.313,0.862,0.591,225.0,531.0
2015-01-13,Tunis,Tunisia,9.5375,33.8869,[9.0375 33.3869 10.0375 34.3869],0.491,0.238,0.769,0.533,0.575,0.294,0.878,0.59,195.0,531.0
2015-01-14,Tunis,Tunisia,9.5375,33.8869,[9.0375 33.3869 10.0375 34.3869],0.512,0.279,0.751,0.536,0.595,0.309,0.885,0.6,225.0,522.0
2015-01-15,Tunis,Tunisia,9.5375,33.8869,[9.0375 33.3869 10.0375 34.3869],0.549,0.322,0.776,0.553,0.628,0.352,0.923,0.635,195.0,532.0
2015-01-16,Tunis,Tunisia,9.5375,33.8869,[9.0375 33.3869 10.0375 34.3869],0.616,0.356,0.928,0.648,0.649,0.378,0.969,0.669,207.0,530.0
2015-01-17,Tunis,Tunisia,9.5375,33.8869,[9.0375 33.3869 10.0375 34.3869],0.646,0.363,0.944,0.678,0.672,0.395,0.976,0.687,204.0,535.0
2015-01-18,Tunis,Tunisia,9.5375,33.8869,[9.0375 33.3869 10.0375 34.3869],0.67,0.407,0.945,0.692,0.674,0.387,0.965,0.684,191.0,537.0
2015-01-19,Tunis,Tunisia,9.5375,33.8869,[9.0375 33.3869 10.0375 34.3869],0.67,0.398,0.945,0.693,0.663,0.388,0.941,0.67,193.0,539.0
2015-01-20,Tunis,Tunisia,9.5375,33.8869,[9.0375 33.3869 10.0375 34.3869],0.67,0.407,0.947,0.711,0.672,0.383,0.93,0.669,169.0,543.0
2015-01-21,Tunis,Tunisia,9.5375,33.8869,[9.0375 33.3869 10.0375 34.3869],0.67,0.407,0.947,0.71,0.678,0.384,0.933,0.673,171.0,528.0
2015-01-22,Tunis,Tunisia,9.5375,33.8869,[9.0375 33.3869 10.0375 34.3869],0.694,0.422,1.078,0.746,0.686,0.385,0.956,0.682,131.0,529.0
2015-01-23,Tunis,Tunisia,9.5375,33.8869,[9.0375 33.3869 10.0375 34.3869],0.718,0.423,1.078,0.755,0.693,0.396,0.947,0.692,161.0,526.0
2015-01-24,Tunis,Tunisia,9.5375,33.8869,[9.0375 33.3869 10.0375 34.3869],0.824,0.561,1.085,0.827,0.69,0.414,0.94,0.698,128.0,535.0
2015-01-25,Tunis,Tunisia,9.5375,33.8869,[9.0375 33.3869 10.0375 34.3869],0.824,0.594,1.078,0.826,0.704,0.438,0.964,0.712,161.0,575.0
2015-01-26,Tunis,Tunisia,9.5375,33.8869,[9.0375 33.3869 10.0375 34.3869],0.809,0.556,1.078,0.809,0.704,0.439,0.969,0.718,190.0,586.0
2015-01-27,Tunis,Tunisia,9.5375,33.8869,[9.0375 33.3869 10.0375 34.3869],0.803,0.556,1.044,0.801,0.738,0.47,1.017,0.755,181.0,587.0
2015-01-28,Tunis,Tunisia,9.5375,33.8869,[9.0375 33.3869 10.0375 34.3869],0.745,0.465,1.025,0.757,0.729,0.446,1.014,0.741,205.0,577.0
2015-01-29,Tunis,Tunisia,9.5375,33.8869,[9.0375 33.3869 10.0375 34.3869],0.824,0.515,1.085,0.806,0.72,0.443,0.994,0.727,175.0,580.0
2015-01-30,Tunis,Tunisia,9.5375,33.8869,[9.0375 33.3869 10.0375 34.3869],0.735,0.46,1.017,0.741,0.706,0.422,1.008,0.723,204.0,570.0
2015-01-31,Tunis,Tunisia,9.5375,33.8869,[9.0375 33.3869 10.0375 34.3869],0.641,0.39,0.939,0.666,0.667,0.387,0.982,0.692,177.0,576.0
2015-02-01,Tunis,Tunisia,9.5375,33.8869,[9.0375 33.3869 10.0375 34.3869],0.653,0.419,0.931,0.666,0.662,0.381,0.972,0.683,191.0,569.0
2015-02-02,Tunis,Tunisia,9.5375,33.8869,[9.0375 33.3869 10.0375 34.3869],0.644,0.409,0.958,0.661,0.662,0.376,0.995,0.685,189.0,576.0
2015-02-03,Tunis,Tunisia,9.5375,33.8869,[9.0375 33.3869 10.0375 34.3869],0.644,0.39,0.958,0.655,0.686,0.376,1.007,0.696,206.0,575.0
2015-02-04,Tunis,Tunisia,9.5375,33.8869,[9.0375 33.3869 10.0375 34.3869],0.653,0.39,0.958,0.66,0.684,0.373,1.0,0.694,234.0,576.0
2015-02-05,Tunis,Tunisia,9.5375,33.8869,[9.0375 33.3869 10.0375 34.3869],0.653,0.39,0.96,0.662,0.685,0.383,0.999,0.698,232.0,578.0
2015-02-06,Tunis,Tunisia,9.5375,33.8869,[9.0375 33.3869 10.0375 34.3869],0.636,0.371,0.946,0.644,0.678,0.379,0.983,0.687,254.0,563.0
2015-02-07,Tunis,Tunisia,9.5375,33.8869,[9.0375 33.3869 10.0375 34.3869],0.622,0.345,0.921,0.619,0.665,0.363,0.959,0.671,224.0,563.0
2015-02-08,Tunis,Tunisia,9.5375,33.8869,[9.0375 33.3869 10.0375 34.3869],0.609,0.334,0.911,0.591,0.667,0.363,0.979,0.667,245.0,559.0
2015-02-09,Tunis,Tunisia,9.5375,33.8869,[9.0375 33.3869 10.0375 34.3869],0.547,0.286,0.816,0.538,0.664,0.348,0.968,0.661,212.0,566.0
2015-02-10,Tunis,Tunisia,9.5375,33.8869,[9.0375 33.3869 10.0375 34.3869],0.596,0.311,0.817,0.56,0.665,0.332,0.942,0.651,197.0,564.0
2015-02-11,Tunis,Tunisia,9.5375,33.8869,[9.0375 33.3869 10.0375 34.3869],0.596,0.311,0.817,0.56,0.623,0.306,0.907,0.618,197.0,534.0
2015-02-12,Tunis,Tunisia,9.5375,33.8869,[9.0375 33.3869 10.0375 34.3869],0.617,0.345,0.906,0.59,0.616,0.307,0.901,0.616,173.0,536.0
2015-02-13,Tunis,Tunisia,9.5375,33.8869,[9.0375 33.3869 10.0375 34.3869],0.617,0.345,0.906,0.59,0.63,0.334,0.929,0.631,173.0,525.0
2015-02-14,Tunis,Tunisia,9.5375,33.8869,[9.0375 33.3869 10.0375 34.3869],0.643,0.344,0.945,0.624,0.611,0.312,0.908,0.608,144.0,527.0
2015-02-15,Tunis,Tunisia,9.5375,33.8869,[9.0375 33.3869 10.0375 34.3869],0.643,0.344,0.945,0.624,0.588,0.294,0.883,0.59,144.0,517.0
2015-02-16,Tunis,Tunisia,9.5375,33.8869,[9.0375 33.3869 10.0375 34.3869],0.603,0.237,0.926,0.57,0.581,0.275,0.879,0.583,116.0,527.0
2015-02-17,Tunis,Tunisia,9.5375,33.8869,[9.0375 33.3869 10.0375 34.3869],0.726,0.364,0.976,0.691,0.594,0.305,0.869,0.6,129.0,519.0
2015-02-18,Tunis,Tunisia,9.5375,33.8869,[9.0375 33.3869 10.0375 34.3869],0.804,0.392,1.017,0.742,0.617,0.309,0.913,0.617,124.0,528.0
2015-02-19,Tunis,Tunisia,9.5375,33.8869,[9.0375 33.3869 10.0375 34.3869],0.816,0.406,1.017,0.757,0.599,0.297,0.919,0.611,99.0,532.0
2015-02-20,Tunis,Tunisia,9.5375,33.8869,[9.0375 33.3869 10.0375 34.3869],0.816,0.406,1.017,0.76,0.572,0.297,0.902,0.603,125.0,534.0
2015-02-21,Tunis,Tunisia,9.5375,33.8869,[9.0375 33.3869 10.0375 34.3869],0.842,0.508,1.073,0.811,0.587,0.315,0.902,0.614,103.0,536.0
2015-02-22,Tunis,Tunisia,9.5375,33.8869,[9.0375 33.3869 10.0375 34.3869],0.842,0.508,1.088,0.806,0.633,0.339,0.991,0.652,126.0,520.0
2015-02-23,Tunis,Tunisia,9.5375,33.8869,[9.0375 33.3869 10.0375 34.3869],0.935,0.64,1.145,0.932,0.652,0.342,0.978,0.663,105.0,521.0
2015-02-24,Tunis,Tunisia,9.5375,33.8869,[9.0375 33.3869 10.0375 34.3869],0.822,0.508,1.073,0.808,0.644,0.348,0.977,0.66,145.0,517.0
2015-02-25,Tunis,Tunisia,9.5375,33.8869,[9.0375 33.3869 10.0375 34.3869],0.83,0.461,1.041,0.81,0.654,0.351,0.967,0.673,131.0,527.0
2015-02-26,Tunis,Tunisia,9.5375,33.8869,[9.0375 33.3869 10.0375 34.3869],0.83,0.461,1.041,0.811,0.69,0.38,0.98,0.689,133.0,567.0
2015-02-27,Tunis,Tunisia,9.5375,33.8869,[9.0375 33.3869 10.0375 34.3869],0.849,0.508,1.109,0.848,0.708,0.396,0.991,0.706,161.0,576.0
2015-02-28,Tunis,Tunisia,9.5375,33.8869,[9.0375 33.3869 10.0375 34.3869],0.849,0.508,1.109,0.848,0.684,0.387,0.97,0.691,161.0,575.0
2015-03-01,Tunis,Tunisia,9.5375,33.8869,[9.0375 33.3869 10.0375 34.3869],0.849,0.508,1.109,0.848,0.719,0.408,0.991,0.713,172.0,566.0
2015-03-02,Tunis,Tunisia,9.5375,33.8869,[9.0375 33.3869 10.0375 34.3869],0.849,0.508,1.109,0.848,0.737,0.432,1.0,0.731,172.0,568.0
2015-03-03,Tunis,Tunisia,9.5375,33.8869,[9.0375 33.3869 10.0375 34.3869],0.821,0.461,1.054,0.81,0.742,0.442,1.017,0.744,195.0,557.0
2015-03-04,Tunis,Tunisia,9.5375,33.8869,[9.0375 33.3869 10.0375 34.3869],0.644,0.419,1.027,0.751,0.708,0.425,0.983,0.722,170.0,568.0
2015-03-05,Tunis,Tunisia,9.5375,33.8869,[9.0375 33.3869 10.0375 34.3869],0.568,0.351,0.859,0.651,0.691,0.417,0.955,0.701,183.0,563.0
2015-03-06,Tunis,Tunisia,9.5375,33.8869,[9.0375 33.3869 10.0375 34.3869],0.567,0.351,0.859,0.638,0.706,0.427,0.956,0.711,194.0,568.0
2015-03-07,Tunis,Tunisia,9.5375,33.8869,[9.0375 33.3869 10.0375 34.3869],0.579,0.357,0.859,0.642,0.72,0.457,0.967,0.723,186.0,569.0
2015-03-08,Tunis,Tunisia,9.5375,33.8869,[9.0375 33.3869 10.0375 34.3869],0.605,0.357,0.859,0.651,0.713,0.439,0.964,0.721,206.0,572.0
2015-03-09,Tunis,Tunisia,9.5375,33.8869,[9.0375 33.3869 10.0375 34.3869],0.605,0.357,0.854,0.638,0.686,0.413,0.948,0.698,183.0,576.0
2015-03-10,Tunis,Tunisia,9.5375,33.8869,[9.0375 33.3869 10.0375 34.3869],0.61,0.357,0.884,0.65,0.695,0.429,0.968,0.714,206.0,562.0
2015-03-11,Tunis,Tunisia,9.5375,33.8869,[9.0375 33.3869 10.0375 34.3869],0.685,0.373,0.925,0.69,0.708,0.437,0.986,0.717,166.0,562.0
2015-03-12,Tunis,Tunisia,9.5375,33.8869,[9.0375 33.3869 10.0375 34.3869],0.736,0.408,0.944,0.721,0.742,0.458,0.995,0.737,206.0,558.0
2015-03-13,Tunis,Tunisia,9.5375,33.8869,[9.0375 33.3869 10.0375 34.3869],0.735,0.408,0.94,0.72,0.758,0.459,1.033,0.766,204.0,564.0
2015-03-14,Tunis,Tunisia,9.5375,33.8869,[9.0375 33.3869 10.0375 34.3869],0.736,0.408,0.92,0.719,0.755,0.456,1.021,0.764,203.0,563.0
2015-03-15,Tunis,Tunisia,9.5375,33.8869,[9.0375 33.3869 10.0375 34.3869],0.736,0.408,0.92,0.719,0.786,0.472,1.056,0.779,203.0,535.0
2015-03-16,Tunis,Tunisia,9.5375,33.8869,[9.0375 33.3869 10.0375 34.3869],0.735,0.408,0.903,0.715,0.784,0.468,1.056,0.776,192.0,532.0
2015-03-17,Tunis,Tunisia,9.5375,33.8869,[9.0375 33.3869 10.0375 34.3869],0.735,0.408,0.903,0.715,0.846,0.521,1.106,0.838,192.0,523.0
2015-03-18,Tunis,Tunisia,9.5375,33.8869,[9.0375 33.3869 10.0375 34.3869],0.752,0.408,0.94,0.733,0.868,0.542,1.128,0.859,169.0,527.0
2015-03-19,Tunis,Tunisia,9.5375,33.8869,[9.0375 33.3869 10.0375 34.3869],0.755,0.408,0.994,0.744,0.882,0.547,1.149,0.867,189.0,518.0
2015-03-20,Tunis,Tunisia,9.5375,33.8869,[9.0375 33.3869 10.0375 34.3869],0.821,0.618,1.073,0.82,0.923,0.625,1.193,0.915,162.0,525.0
2015-03-21,Tunis,Tunisia,9.5375,33.8869,[9.0375 33.3869 10.0375 34.3869],0.89,0.667,1.182,0.902,0.924,0.638,1.199,0.927,179.0,520.0
2015-03-22,Tunis,Tunisia,9.5375,33.8869,[9.0375 33.3869 10.0375 34.3869],0.89,0.664,1.183,0.899,0.919,0.614,1.209,0.918,177.0,530.0
2015-03-23,Tunis,Tunisia,9.5375,33.8869,[9.0375 33.3869 10.0375 34.3869],0.89,0.664,1.2,0.899,0.925,0.63,1.204,0.912,167.0,535.0
2015-03-24,Tunis,Tunisia,9.5375,33.8869,[9.0375 33.3869 10.0375 34.3869],0.887,0.631,1.173,0.862,0.901,0.619,1.196,0.904,195.0,537.0
2015-03-25,Tunis,Tunisia,9.5375,33.8869,[9.0375 33.3869 10.0375 34.3869],0.887,0.638,1.182,0.872,0.902,0.614,1.205,0.903,172.0,537.0
2015-03-26,Tunis,Tunisia,9.5375,33.8869,[9.0375 33.3869 10.0375 34.3869],0.879,0.548,1.16,0.838,0.886,0.58,1.188,0.895,195.0,524.0
2015-03-27,Tunis,Tunisia,9.5375,33.8869,[9.0375 33.3869 10.0375 34.3869],0.89,0.496,1.182,0.845,0.893,0.576,1.193,0.897,155.0,525.0
2015-03-28,Tunis,Tunisia,9.5375,33.8869,[9.0375 33.3869 10.0375 34.3869],0.887,0.545,1.16,0.851,0.871,0.566,1.188,0.878,191.0,522.0
2015-03-29,Tunis,Tunisia,9.5375,33.8869,[9.0375 33.3869 10.0375 34.3869],0.89,0.496,1.165,0.846,0.858,0.529,1.188,0.865,164.0,530.0
2015-03-30,Tunis,Tunisia,9.5375,33.8869,[9.0375 33.3869 10.0375 34.3869],0.887,0.478,1.157,0.836,0.861,0.531,1.183,0.867,181.0,567.0
2015-03-31,Tunis,Tunisia,9.5375,33.8869,[9.0375 33.3869 10.0375 34.3869],0.887,0.496,1.16,0.838,0.864,0.535,1.183,0.866,211.0,580.0
2015-04-01,Tunis,Tunisia,9.5375,33.8869,[9.0375 33.3869 10.0375 34.3869],0.887,0.521,1.16,0.837,0.825,0.509,1.096,0.803,219.0,580.0
2015-04-02,Tunis,Tunisia,9.5375,33.8869,[9.0375 33.3869 10.0375 34.3869],0.887,0.545,1.157,0.848,0.8,0.494,1.053,0.776,241.0,570.0
2015-04-03,Tunis,Tunisia,9.5375,33.8869,[9.0375 33.3869 10.0375 34.3869],0.887,0.545,1.136,0.849,0.803,0.501,1.055,0.789,229.0,571.0
2015-04-04,Tunis,Tunisia,9.5375,33.8869,[9.0375 33.3869 10.0375 34.3869],0.848,0.496,1.079,0.822,0.767,0.513,1.016,0.771,259.0,563.0
2015-04-05,Tunis,Tunisia,9.5375,33.8869,[9.0375 33.3869 10.0375 34.3869],0.807,0.453,0.99,0.744,0.731,0.489,0.989,0.736,228.0,570.0
2015-04-06,Tunis,Tunisia,9.5375,33.8869,[9.0375 33.3869 10.0375 34.3869],0.703,0.422,0.942,0.697,0.713,0.487,0.977,0.737,243.0,565.0
2015-04-07,Tunis,Tunisia,9.5375,33.8869,[9.0375 33.3869 10.0375 34.3869],0.733,0.432,0.96,0.714,0.745,0.486,1.005,0.753,267.0,570.0
2015-04-08,Tunis,Tunisia,9.5375,33.8869,[9.0375 33.3869 10.0375 34.3869],0.738,0.453,0.96,0.737,0.743,0.486,1.002,0.753,260.0,575.0
2015-04-09,Tunis,Tunisia,9.5375,33.8869,[9.0375 33.3869 10.0375 34.3869],0.741,0.459,0.961,0.745,0.737,0.486,0.985,0.752,286.0,579.0
2015-04-10,Tunis,Tunisia,9.5375,33.8869,[9.0375 33.3869 10.0375 34.3869],0.784,0.486,0.986,0.767,0.739,0.494,0.992,0.759,281.0,580.0
2015-04-11,Tunis,Tunisia,9.5375,33.8869,[9.0375 33.3869 10.0375 34.3869],0.79,0.486,0.99,0.773,0.714,0.481,0.977,0.731,300.0,564.0
2015-04-12,Tunis,Tunisia,9.5375,33.8869,[9.0375 33.3869 10.0375 34.3869],0.775,0.484,0.961,0.753,0.699,0.471,0.96,0.716,264.0,565.0
2015-04-13,Tunis,Tunisia,9.5375,33.8869,[9.0375 33.3869 10.0375 34.3869],0.738,0.484,0.951,0.736,0.7,0.477,0.959,0.716,303.0,562.0
2015-04-14,Tunis,Tunisia,9.5375,33.8869,[9.0375 33.3869 10.0375 34.3869],0.738,0.484,0.961,0.735,0.69,0.468,0.95,0.706,286.0,571.0
2015-04-15,Tunis,Tunisia,9.5375,33.8869,[9.0375 33.3869 10.0375 34.3869],0.649,0.445,0.936,0.684,0.67,0.459,0.935,0.692,270.0,569.0
2015-04-16,Tunis,Tunisia,9.5375,33.8869,[9.0375 33.3869 10.0375 34.3869],0.649,0.444,0.936,0.682,0.682,0.462,0.938,0.701,262.0,539.0
2015-04-17,Tunis,Tunisia,9.5375,33.8869,[9.0375 33.3869 10.0375 34.3869],0.649,0.433,0.919,0.67,0.682,0.452,0.948,0.703,260.0,540.0
2015-04-18,Tunis,Tunisia,9.5375,33.8869,[9.0375 33.3869 10.0375 34.3869],0.637,0.43,0.918,0.659,0.67,0.427,0.943,0.686,275.0,531.0
2015-04-19,Tunis,Tunisia,9.5375,33.8869,[9.0375 33.3869 10.0375 34.3869],0.61,0.395,0.888,0.637,0.65,0.397,0.934,0.669,256.0,535.0
2015-04-20,Tunis,Tunisia,9.5375,33.8869,[9.0375 33.3869 10.0375 34.3869],0.643,0.426,0.92,0.657,0.677,0.438,0.931,0.685,287.0,528.0
2015-04-21,Tunis,Tunisia,9.5375,33.8869,[9.0375 33.3869 10.0375 34.3869],0.682,0.457,0.95,0.69,0.687,0.436,0.94,0.688,256.0,534.0
2015-04-22,Tunis,Tunisia,9.5375,33.8869,[9.0375 33.3869 10.0375 34.3869],0.643,0.426,0.919,0.652,0.67,0.424,0.925,0.677,249.0,529.0
2015-04-23,Tunis,Tunisia,9.5375,33.8869,[9.0375 33.3869 10.0375 34.3869],0.649,0.43,0.92,0.658,0.697,0.441,0.941,0.696,263.0,533.0
2015-04-24,Tunis,Tunisia,9.5375,33.8869,[9.0375 33.3869 10.0375 34.3869],0.657,0.438,0.95,0.708,0.726,0.448,1.015,0.755,255.0,535.0
2015-04-25,Tunis,Tunisia,9.5375,33.8869,[9.0375 33.3869 10.0375 34.3869],0.657,0.435,0.95,0.712,0.752,0.471,1.052,0.78,265.0,538.0
2015-04-26,Tunis,Tunisia,9.5375,33.8869,[9.0375 33.3869 10.0375 34.3869],0.657,0.438,0.996,0.719,0.793,0.495,1.146,0.825,266.0,544.0
2015-04-27,Tunis,Tunisia,9.5375,33.8869,[9.0375 33.3869 10.0375 34.3869],0.697,0.44,1.026,0.749,0.813,0.518,1.181,0.852,289.0,528.0
2015-04-28,Tunis,Tunisia,9.5375,33.8869,[9.0375 33.3869 10.0375 34.3869],0.703,0.426,1.065,0.767,0.841,0.542,1.211,0.879,250.0,529.0
2015-04-29,Tunis,Tunisia,9.5375,33.8869,[9.0375 33.3869 10.0375 34.3869],0.706,0.44,1.026,0.756,0.859,0.553,1.231,0.893,289.0,526.0
2015-04-30,Tunis,Tunisia,9.5375,33.8869,[9.0375 33.3869 10.0375 34.3869],0.738,0.495,1.051,0.803,0.892,0.6,1.251,0.927,275.0,535.0
2015-05-01,Tunis,Tunisia,9.5375,33.8869,[9.0375 33.3869 10.0375 34.3869],0.766,0.504,1.029,0.795,0.882,0.594,1.243,0.923,311.0,576.0
2015-05-02,Tunis,Tunisia,9.5375,33.8869,[9.0375 33.3869 10.0375 34.3869],0.766,0.521,1.045,0.803,0.919,0.643,1.274,0.956,321.0,585.0
2015-05-03,Tunis,Tunisia,9.5375,33.8869,[9.0375 33.3869 10.0375 34.3869],0.799,0.556,1.113,0.842,0.968,0.703,1.317,1.002,323.0,585.0
2015-05-04,Tunis,Tunisia,9.5375,33.8869,[9.0375 33.3869 10.0375 34.3869],0.826,0.569,1.163,0.883,0.977,0.717,1.318,1.022,336.0,574.0
2015-05-05,Tunis,Tunisia,9.5375,33.8869,[9.0375 33.3869 10.0375 34.3869],0.85,0.573,1.181,0.91,1.001,0.74,1.347,1.057,319.0,574.0
2015-05-06,Tunis,Tunisia,9.5375,33.8869,[9.0375 33.3869 10.0375 34.3869],0.947,0.59,1.362,0.968,1.045,0.751,1.393,1.082,349.0,564.0
2015-05-07,Tunis,Tunisia,9.5375,33.8869,[9.0375 33.3869 10.0375 34.3869],1.02,0.69,1.403,1.039,1.059,0.771,1.399,1.096,322.0,572.0
2015-05-08,Tunis,Tunisia,9.5375,33.8869,[9.0375 33.3869 10.0375 34.3869],1.02,0.714,1.378,1.039,1.086,0.788,1.406,1.112,317.0,567.0
2015-05-09,Tunis,Tunisia,9.5375,33.8869,[9.0375 33.3869 10.0375 34.3869],1.02,0.714,1.364,1.039,1.095,0.792,1.395,1.104,333.0,592.0
2015-05-10,Tunis,Tunisia,9.5375,33.8869,[9.0375 33.3869 10.0375 34.3869],1.051,0.736,1.403,1.072,1.113,0.811,1.438,1.127,318.0,612.0
2015-05-11,Tunis,Tunisia,9.5375,33.8869,[9.0375 33.3869 10.0375 34.3869],1.079,0.76,1.421,1.093,1.098,0.793,1.413,1.11,323.0,611.0
2015-05-12,Tunis,Tunisia,9.5375,33.8869,[9.0375 33.3869 10.0375 34.3869],1.086,0.764,1.405,1.091,1.105,0.799,1.409,1.11,321.0,618.0
2015-05-13,Tunis,Tunisia,9.5375,33.8869,[9.0375 33.3869 10.0375 34.3869],1.086,0.764,1.405,1.091,1.094,0.806,1.436,1.119,323.0,601.0
2015-05-14,Tunis,Tunisia,9.5375,33.8869,[9.0375 33.3869 10.0375 34.3869],1.153,0.835,1.448,1.166,1.11,0.81,1.438,1.13,284.0,602.0
2015-05-15,Tunis,Tunisia,9.5375,33.8869,[9.0375 33.3869 10.0375 34.3869],1.201,0.886,1.488,1.205,1.13,0.828,1.467,1.15,324.0,598.0
2015-05-16,Tunis,Tunisia,9.5375,33.8869,[9.0375 33.3869 10.0375 34.3869],1.315,1.08,1.529,1.294,1.158,0.881,1.463,1.169,288.0,604.0
2015-05-17,Tunis,Tunisia,9.5375,33.8869,[9.0375 33.3869 10.0375 34.3869],1.265,1.037,1.521,1.283,1.137,0.845,1.459,1.152,292.0,603.0
2015-05-18,Tunis,Tunisia,9.5375,33.8869,[9.0375 33.3869 10.0375 34.3869],1.275,1.03,1.523,1.285,1.149,0.844,1.448,1.15,267.0,573.0
2015-05-19,Tunis,Tunisia,9.5375,33.8869,[9.0375 33.3869 10.0375 34.3869],1.262,1.025,1.504,1.27,1.163,0.851,1.454,1.158,266.0,613.0
2015-05-20,Tunis,Tunisia,9.5375,33.8869,[9.0375 33.3869 10.0375 34.3869],1.253,0.998,1.504,1.254,1.151,0.837,1.443,1.144,272.0,606.0
2015-05-21,Tunis,Tunisia,9.5375,33.8869,[9.0375 33.3869 10.0375 34.3869],1.231,0.992,1.499,1.243,1.134,0.808,1.436,1.13,253.0,640.0
2015-05-22,Tunis,Tunisia,9.5375,33.8869,[9.0375 33.3869 10.0375 34.3869],1.195,0.942,1.399,1.203,1.139,0.823,1.425,1.129,284.0,630.0
2015-05-23,Tunis,Tunisia,9.5375,33.8869,[9.0375 33.3869 10.0375 34.3869],1.232,0.994,1.516,1.246,1.128,0.821,1.427,1.124,254.0,639.0
2015-05-24,Tunis,Tunisia,9.5375,33.8869,[9.0375 33.3869 10.0375 34.3869],1.267,1.03,1.557,1.285,1.123,0.811,1.422,1.114,247.0,616.0
2015-05-25,Tunis,Tunisia,9.5375,33.8869,[9.0375 33.3869 10.0375 34.3869],1.265,1.03,1.551,1.272,1.098,0.8,1.408,1.095,268.0,605.0
2015-05-26,Tunis,Tunisia,9.5375,33.8869,[9.0375 33.3869 10.0375 34.3869],1.267,1.03,1.565,1.301,1.153,0.834,1.455,1.138,262.0,608.0
2015-05-27,Tunis,Tunisia,9.5375,33.8869,[9.0375 33.3869 10.0375 34.3869],1.275,1.03,1.565,1.305,1.186,0.864,1.478,1.163,268.0,607.0
2015-05-28,Tunis,Tunisia,9.5375,33.8869,[9.0375 33.3869 10.0375 34.3869],1.275,1.034,1.565,1.31,1.197,0.891,1.47,1.171,272.0,613.0
2015-05-29,Tunis,Tunisia,9.5375,33.8869,[9.0375 33.3869 10.0375 34.3869],1.316,1.06,1.633,1.362,1.181,0.871,1.487,1.175,295.0,597.0
2015-05-30,Tunis,Tunisia,9.5375,33.8869,[9.0375 33.3869 10.0375 34.3869],1.278,1.03,1.683,1.354,1.17,0.854,1.489,1.164,255.0,597.0
2015-05-31,Tunis,Tunisia,9.5375,33.8869,[9.0375 33.3869 10.0375 34.3869],1.39,1.069,1.738,1.408,1.215,0.884,1.538,1.204,292.0,594.0
2015-06-01,Tunis,Tunisia,9.5375,33.8869,[9.0375 33.3869 10.0375 34.3869],1.472,1.122,1.815,1.463,1.238,0.914,1.551,1.221,258.0,602.0
2015-06-02,Tunis,Tunisia,9.5375,33.8869,[9.0375 33.3869 10.0375 34.3869],1.436,1.122,1.743,1.441,1.242,0.907,1.547,1.224,293.0,640.0
2015-06-03,Tunis,Tunisia,9.5375,33.8869,[9.0375 33.3869 10.0375 34.3869],1.446,1.122,1.762,1.451,1.251,0.907,1.559,1.233,299.0,610.0
2015-06-04,Tunis,Tunisia,9.5375,33.8869,[9.0375 33.3869 10.0375 34.3869],1.472,1.151,1.783,1.463,1.273,0.924,1.579,1.252,296.0,606.0
2015-06-05,Tunis,Tunisia,9.5375,33.8869,[9.0375 33.3869 10.0375 34.3869],1.466,1.122,1.762,1.449,1.3,0.943,1.582,1.271,308.0,567.0
2015-06-06,Tunis,Tunisia,9.5375,33.8869,[9.0375 33.3869 10.0375 34.3869],1.528,1.217,1.815,1.51,1.324,0.983,1.596,1.294,287.0,570.0
2015-06-07,Tunis,Tunisia,9.5375,33.8869,[9.0375 33.3869 10.0375 34.3869],1.446,1.125,1.757,1.448,1.333,0.983,1.617,1.303,318.0,561.0
2015-06-08,Tunis,Tunisia,9.5375,33.8869,[9.0375 33.3869 10.0375 34.3869],1.415,1.055,1.698,1.416,1.337,0.957,1.638,1.319,291.0,594.0
2015-06-09,Tunis,Tunisia,9.5375,33.8869,[9.0375 33.3869 10.0375 34.3869],1.316,1.035,1.659,1.364,1.307,0.951,1.627,1.303,284.0,591.0
2015-06-10,Tunis,Tunisia,9.5375,33.8869,[9.0375 33.3869 10.0375 34.3869],1.277,1.02,1.62,1.32,1.232,0.911,1.55,1.243,299.0,642.0
2015-06-11,Tunis,Tunisia,9.5375,33.8869,[9.0375 33.3869 10.0375 34.3869],1.309,1.02,1.628,1.337,1.202,0.887,1.523,1.22,291.0,667.0
2015-06-12,Tunis,Tunisia,9.5375,33.8869,[9.0375 33.3869 10.0375 34.3869],1.286,1.02,1.62,1.328,1.169,0.868,1.512,1.199,312.0,668.0
2015-06-13,Tunis,Tunisia,9.5375,33.8869,[9.0375 33.3869 10.0375 34.3869],1.274,1.02,1.564,1.284,1.162,0.87,1.497,1.197,307.0,672.0
2015-06-14,Tunis,Tunisia,9.5375,33.8869,[9.0375 33.3869 10.0375 34.3869],1.278,1.021,1.595,1.308,1.17,0.885,1.519,1.213,332.0,658.0
2015-06-15,Tunis,Tunisia,9.5375,33.8869,[9.0375 33.3869 10.0375 34.3869],1.218,0.967,1.505,1.24,1.163,0.858,1.479,1.197,295.0,657.0
2015-06-16,Tunis,Tunisia,9.5375,33.8869,[9.0375 33.3869 10.0375 34.3869],1.193,0.95,1.473,1.215,1.164,0.855,1.486,1.195,335.0,652.0
2015-06-17,Tunis,Tunisia,9.5375,33.8869,[9.0375 33.3869 10.0375 34.3869],1.157,0.928,1.46,1.195,1.169,0.861,1.485,1.199,300.0,661.0
2015-06-18,Tunis,Tunisia,9.5375,33.8869,[9.0375 33.3869 10.0375 34.3869],1.115,0.901,1.407,1.165,1.15,0.859,1.456,1.183,306.0,661.0
2015-06-19,Tunis,Tunisia,9.5375,33.8869,[9.0375 33.3869 10.0375 34.3869],1.114,0.91,1.407,1.166,1.164,0.876,1.475,1.191,289.0,634.0
2015-06-20,Tunis,Tunisia,9.5375,33.8869,[9.0375 33.3869 10.0375 34.3869],1.165,0.92,1.407,1.18,1.176,0.873,1.513,1.212,286.0,674.0
2015-06-21,Tunis,Tunisia,9.5375,33.8869,[9.0375 33.3869 10.0375 34.3869],1.191,0.948,1.469,1.219,1.152,0.862,1.51,1.198,298.0,665.0
2015-06-22,Tunis,Tunisia,9.5375,33.8869,[9.0375 33.3869 10.0375 34.3869],1.218,0.959,1.499,1.248,1.152,0.828,1.525,1.201,278.0,697.0
2015-06-23,Tunis,Tunisia,9.5375,33.8869,[9.0375 33.3869 10.0375 34.3869],1.27,0.991,1.613,1.311,1.159,0.847,1.523,1.196,308.0,663.0
2015-06-24,Tunis,Tunisia,9.5375,33.8869,[9.0375 33.3869 10.0375 34.3869],1.343,0.996,1.657,1.356,1.159,0.834,1.524,1.196,281.0,671.0
2015-06-25,Tunis,Tunisia,9.5375,33.8869,[9.0375 33.3869 10.0375 34.3869],1.422,1.087,1.695,1.407,1.207,0.874,1.569,1.24,274.0,623.0
2015-06-26,Tunis,Tunisia,9.5375,33.8869,[9.0375 33.3869 10.0375 34.3869],1.407,1.037,1.682,1.389,1.215,0.899,1.572,1.247,290.0,607.0
2015-06-27,Tunis,Tunisia,9.5375,33.8869,[9.0375 33.3869 10.0375 34.3869],1.43,1.042,1.722,1.413,1.236,0.917,1.589,1.264,283.0,607.0